DECAYED

STARLINK-2263, 48003 (Decayed)

Orbit data source: Space-Track

STARLINK-2263, 48003 was a payload satellite owned by SpaceX/Seattle (US) in LEO that was launched on Wed, 24 Mar 2021 UTC via an FALCON 9 launch vehicle from the Air Force Eastern Test Range (AFETR). Payload-class satellites include a variety of spacecraft equipped with specific instruments for various scientific and technological missions. These include communications satellites like Starlink; space stations such as the ISS; scientific satellites like the Hubble; Earth observation satellites from companies like Planet Labs, Umbra, and HawkEye 360; GPS; miniature CubeSats for education and research; and military/defense satellites.

Not visible in the next 10 days
Identifier
48003, 2021-024AC
Orbit
Decayed
Country
Flag of USUS
Related business
Manufacturer
SpaceX/Seattle
Mission
Decayed Commercial Communications
Bus & Motor
STARLINK, Unknown motor
Mass
260 kg wet, ~248 kg dry
Launch date (UTC)
2021-03-24 (5 years ago)
Launch vehicle
FALCON 9
Launch site
Air Force Eastern Test Range (AFETR)
Object type
Payload
Rocket body
Debris
Shape & HBR
Box + 1 Pan, 10.1 m
Radar Cross Section
13.562 m², Large (>1 m²)

Expand to show TLE details & history
Last TLE update: 11 months ago

TLE from 11 months ago
0 STARLINK-2263
1 48003U 21024AC  25151.14597499  .30871399  12649-4  29757-3 0  9995
2 48003  53.0252 133.5969 0005178 258.3141 160.1720 16.50889224231878
Epoch: 2025-05-31T03:30Z
TLE epoch observation values (Epoch: 2025-05-31T03:30:12.239Z)
Latitude
43.0828°
Longitude
-123.41527°
Altitude
144.379 km
Speed
7.823 km/s
True Right ascension
11h 52m 06s
True Declination
42° 53' 42"
Sunlit
Object was in daylight at epoch
Visualization orbit readout
Latitude
Unknown
Longitude
Unknown
Altitude
Unknown
Speed
Unknown
Apparent Right ascension
Unknown
Apparent Declination
Unknown
Sunlit
N/A
Visualization observer readout
Local Sidereal Time
22:11:40
Azimuth
Unknown
Elevation
Unknown
Doppler factor
Unknown
Orbital elements
Apogee altitude
140.661 km
Perigee altitude
133.914 km
Semi-major axis
6,515.424 km
Eccentricity
0.00052
Inclination
53.0252°
RAAN
133.5969°
Arg. of periapsis
258.3141°
True anomaly
160.19211°
Mean anomaly
160.172°
Eccentric anomaly
160.18206°
Mean motion
4.12695 °/min
Orbital period
87.23 mins
BSTAR
0.00029757
Loading maneuver chart data...
Computing Atmospheric mass density...

Documentation

Showing up to 5 results
|